Year,Month,Day,Hour,Minute,Value (Times are PST for temperature in C)
2007,08,20,00,00,15.20
2007,08,20,00,01,15.20
2007,08,20,00,02,15.20
2007,08,20,00,03,15.20
2007,08,20,00,04,15.20
2007,08,20,00,05,15.20
2007,08,20,00,06,15.20
2007,08,20,00,07,15.20
2007,08,20,00,08,15.20
2007,08,20,00,09,15.20
2007,08,20,00,10,15.20
2007,08,20,01,52,13.20
2007,08,20,01,53,13.20
2007,08,20,01,54,13.20
2007,08,20,01,55,13.20
2007,08,20,01,56,13.20
2007,08,20,01,57,13.20
2007,08,20,01,58,13.30
2007,08,20,01,59,13.20
2007,08,20,02,00,13.20
2007,08,20,02,01,13.20
2007,08,20,02,02,13.20
2007,08,20,02,03,13.20
2007,08,20,02,04,13.20
2007,08,20,02,05,13.20
2007,08,20,02,06,13.20
2007,08,20,02,07,13.20
2007,08,20,02,08,13.20
2007,08,20,02,09,13.10
2007,08,20,02,10,13.10
2007,08,20,02,11,13.10
2007,08,20,02,12,13.10
2007,08,20,02,13,13.10
2007,08,20,02,14,13.10
2007,08,20,02,15,13.10
2007,08,20,02,16,13.00
2007,08,20,02,17,13.00
2007,08,20,02,18,13.00
2007,08,20,02,19,13.10
2007,08,20,02,20,13.10
2007,08,20,02,21,13.10
2007,08,20,02,22,13.00
2007,08,20,02,23,13.00
2007,08,20,02,24,13.00
2007,08,20,02,25,13.00
2007,08,20,02,26,13.00
2007,08,20,02,27,13.00
2007,08,20,02,28,13.00
2007,08,20,02,29,13.00
2007,08,20,02,30,13.00
2007,08,20,02,31,13.00
2007,08,20,02,32,13.00
2007,08,20,02,33,13.00
2007,08,20,02,34,13.00
2007,08,20,02,35,13.00
2007,08,20,02,36,13.00
2007,08,20,02,37,13.00
2007,08,20,02,38,13.00
2007,08,20,02,39,13.00
2007,08,20,02,40,13.00
2007,08,20,02,41,13.00
2007,08,20,02,42,13.00
2007,08,20,02,43,13.00
2007,08,20,02,44,13.00
2007,08,20,02,45,13.00
2007,08,20,02,46,13.00
2007,08,20,02,47,12.90
2007,08,20,02,48,12.90
2007,08,20,02,49,12.90
2007,08,20,02,50,12.90
2007,08,20,02,51,12.90
2007,08,20,02,52,12.90
2007,08,20,02,53,12.90
2007,08,20,02,54,12.80
2007,08,20,02,55,12.80
2007,08,20,02,56,12.80
2007,08,20,02,57,12.80
2007,08,20,02,58,12.80
2007,08,20,02,59,12.80
2007,08,20,03,00,12.80
2007,08,20,03,01,12.80
2007,08,20,03,02,12.80
2007,08,20,03,03,12.80
2007,08,20,03,04,12.80
2007,08,20,03,05,12.80
2007,08,20,03,06,12.80
2007,08,20,03,07,12.80
2007,08,20,03,08,12.80
2007,08,20,03,09,12.80
2007,08,20,03,10,12.80
2007,08,20,03,11,12.80
2007,08,20,03,12,12.80
2007,08,20,03,13,12.80
2007,08,20,03,14,12.80
2007,08,20,03,15,12.80
2007,08,20,03,16,12.80
2007,08,20,03,17,12.80
2007,08,20,03,18,12.80
2007,08,20,03,19,12.80
2007,08,20,03,20,12.80
2007,08,20,03,21,12.80
2007,08,20,03,22,12.80
2007,08,20,03,23,12.80
2007,08,20,03,24,12.80
2007,08,20,03,25,12.80
2007,08,20,03,26,12.80
2007,08,20,03,27,12.80
2007,08,20,03,28,12.80
2007,08,20,03,29,12.80
2007,08,20,03,30,12.80
2007,08,20,03,31,12.80
2007,08,20,03,32,12.80
2007,08,20,03,33,12.80
2007,08,20,03,34,12.80
2007,08,20,03,35,12.80
2007,08,20,03,36,12.80
2007,08,20,03,37,12.80
2007,08,20,03,38,12.80
2007,08,20,03,39,12.80
2007,08,20,03,40,12.80
2007,08,20,03,41,12.80
2007,08,20,03,42,12.80
2007,08,20,03,43,12.80
2007,08,20,03,44,12.80
2007,08,20,03,45,12.80
2007,08,20,03,46,12.80
2007,08,20,03,47,12.80
2007,08,20,03,48,12.80
2007,08,20,03,49,12.80
2007,08,20,03,50,12.90
2007,08,20,03,51,12.90
2007,08,20,03,52,12.80
2007,08,20,03,53,12.90
2007,08,20,03,54,12.90
2007,08,20,03,55,12.90
2007,08,20,03,56,12.90
2007,08,20,03,57,12.90
2007,08,20,03,58,12.90
2007,08,20,03,59,12.90
2007,08,20,04,00,12.90
2007,08,20,04,01,12.90
2007,08,20,04,02,12.90
2007,08,20,04,03,12.90
2007,08,20,04,04,12.90
2007,08,20,04,05,12.90
2007,08,20,04,06,12.90
2007,08,20,04,07,12.90
2007,08,20,04,08,12.80
2007,08,20,04,09,12.80
2007,08,20,04,10,12.80
2007,08,20,04,11,12.80
2007,08,20,04,12,12.80
2007,08,20,04,13,12.80
2007,08,20,04,14,12.80
2007,08,20,04,15,12.80
2007,08,20,04,16,12.80
2007,08,20,04,17,12.80
2007,08,20,04,18,12.80
2007,08,20,04,19,12.80
2007,08,20,04,20,12.80
2007,08,20,04,21,12.80
2007,08,20,04,22,12.80
2007,08,20,04,23,12.80
2007,08,20,04,24,12.80
2007,08,20,04,25,12.80
2007,08,20,04,26,12.80
2007,08,20,04,27,12.80
2007,08,20,04,28,12.80
2007,08,20,04,29,12.80
2007,08,20,04,30,12.80
2007,08,20,04,31,12.80
2007,08,20,04,32,12.80
2007,08,20,04,33,12.80
2007,08,20,04,34,12.80
2007,08,20,04,35,12.80
2007,08,20,04,36,12.80
2007,08,20,04,37,12.80
2007,08,20,04,38,12.90
2007,08,20,04,39,12.90
2007,08,20,04,40,12.90
2007,08,20,04,41,12.90
2007,08,20,04,42,12.90
2007,08,20,04,43,13.00
2007,08,20,04,44,13.00
2007,08,20,04,45,12.90
2007,08,20,04,46,12.90
2007,08,20,04,47,12.90
2007,08,20,04,48,12.90
2007,08,20,04,49,12.90
2007,08,20,04,50,12.90
2007,08,20,04,51,12.90
2007,08,20,04,52,12.90
2007,08,20,04,53,12.90
2007,08,20,04,54,13.00
2007,08,20,04,55,13.00
2007,08,20,04,56,12.90
2007,08,20,04,57,12.90
2007,08,20,04,58,12.90
2007,08,20,04,59,12.90
2007,08,20,05,00,12.90
2007,08,20,05,01,12.90
2007,08,20,05,02,13.00
2007,08,20,05,03,13.00
2007,08,20,05,04,13.00
2007,08,20,05,05,13.00
2007,08,20,05,06,13.00
2007,08,20,05,07,13.00
2007,08,20,05,08,13.00
2007,08,20,05,09,13.00
2007,08,20,05,10,13.00
2007,08,20,05,11,13.00
2007,08,20,05,12,13.00
2007,08,20,05,13,12.90
2007,08,20,05,14,12.90
2007,08,20,05,15,12.90
2007,08,20,05,16,12.90
2007,08,20,05,17,12.90
2007,08,20,05,18,12.90
2007,08,20,05,19,12.90
2007,08,20,05,20,12.80
2007,08,20,05,21,12.80
2007,08,20,05,22,12.80
2007,08,20,05,23,12.80
2007,08,20,05,24,12.80
2007,08,20,05,25,12.80
2007,08,20,05,26,12.80
2007,08,20,05,27,12.80
2007,08,20,05,28,12.80
2007,08,20,05,29,12.80
2007,08,20,05,30,12.70
2007,08,20,05,31,12.70
2007,08,20,05,32,12.70
2007,08,20,05,33,12.70
2007,08,20,05,34,12.70
2007,08,20,05,35,12.70
2007,08,20,05,36,12.60
2007,08,20,05,37,12.60
2007,08,20,05,38,12.60
2007,08,20,05,39,12.60
2007,08,20,05,40,12.60
2007,08,20,05,41,12.50
2007,08,20,05,42,12.50
2007,08,20,05,43,12.50
2007,08,20,05,44,12.50
2007,08,20,05,45,12.50
2007,08,20,05,46,12.50
2007,08,20,05,47,12.50
2007,08,20,05,48,12.50
2007,08,20,05,49,12.40
2007,08,20,05,50,12.40
2007,08,20,05,51,12.40
2007,08,20,05,52,12.40
2007,08,20,05,53,12.40
2007,08,20,05,54,12.30
2007,08,20,05,55,12.30
2007,08,20,05,56,12.30
2007,08,20,05,57,12.30
2007,08,20,05,58,12.30
2007,08,20,05,59,12.30
2007,08,20,06,00,12.30
2007,08,20,06,01,12.30
2007,08,20,06,02,12.30
2007,08,20,06,03,12.30
2007,08,20,06,04,12.30
2007,08,20,06,05,12.30
2007,08,20,06,06,12.30
2007,08,20,06,07,12.30
2007,08,20,06,08,12.30
2007,08,20,06,09,12.30
2007,08,20,06,10,12.30
2007,08,20,06,11,12.30
2007,08,20,06,12,12.30
2007,08,20,06,13,12.30
2007,08,20,06,14,12.30
2007,08,20,06,15,12.30
2007,08,20,06,16,12.30
2007,08,20,06,17,12.30
2007,08,20,06,18,12.30
2007,08,20,06,19,12.20
2007,08,20,06,20,12.20
2007,08,20,06,21,12.20
2007,08,20,06,22,12.20
2007,08,20,06,23,12.20
2007,08,20,06,24,12.20
2007,08,20,06,25,12.20
2007,08,20,06,26,12.20
2007,08,20,06,27,12.30
2007,08,20,06,28,12.30
2007,08,20,06,29,12.30
2007,08,20,06,30,12.30
2007,08,20,06,31,12.30
2007,08,20,06,32,12.30
2007,08,20,06,33,12.30
2007,08,20,06,34,12.30
2007,08,20,06,35,12.30
2007,08,20,06,36,12.30
2007,08,20,06,37,12.30
2007,08,20,06,38,12.30
2007,08,20,06,39,12.30
2007,08,20,06,40,12.30
2007,08,20,06,41,12.30
2007,08,20,06,42,12.30
2007,08,20,06,43,12.30
2007,08,20,06,44,12.30
2007,08,20,06,45,12.30
2007,08,20,06,46,12.30
2007,08,20,06,47,12.30
2007,08,20,06,48,12.30
2007,08,20,06,49,12.30
2007,08,20,06,50,12.30
2007,08,20,06,51,12.30
2007,08,20,06,52,12.30
2007,08,20,06,53,12.30
2007,08,20,06,54,12.40
2007,08,20,06,55,12.40
2007,08,20,06,56,12.40
2007,08,20,06,57,12.40
2007,08,20,06,58,12.40
2007,08,20,06,59,12.40
2007,08,20,07,00,12.40
2007,08,20,07,01,12.40
2007,08,20,07,02,12.40
2007,08,20,07,03,12.40
2007,08,20,07,04,12.40
2007,08,20,07,05,12.40
2007,08,20,07,06,12.40
2007,08,20,07,07,12.40
2007,08,20,07,08,12.40
2007,08,20,07,09,12.50
2007,08,20,07,10,12.40
2007,08,20,07,11,12.40
2007,08,20,07,12,12.40
2007,08,20,07,13,12.40
2007,08,20,07,14,12.40
2007,08,20,07,15,12.40
2007,08,20,07,16,12.40
2007,08,20,07,17,12.40
2007,08,20,07,18,12.40
2007,08,20,07,19,12.40
2007,08,20,07,20,12.40
2007,08,20,07,21,12.40
2007,08,20,07,22,12.40
2007,08,20,07,23,12.40
2007,08,20,07,24,12.40
2007,08,20,07,25,12.40
2007,08,20,07,26,12.40
2007,08,20,07,27,12.40
2007,08,20,07,28,12.40
2007,08,20,07,29,12.40
2007,08,20,07,30,12.40
2007,08,20,07,31,12.40
2007,08,20,07,32,12.40
2007,08,20,07,33,12.40
2007,08,20,07,34,12.40
2007,08,20,07,35,12.50
2007,08,20,07,36,12.50
2007,08,20,07,37,12.50
2007,08,20,07,38,12.50
2007,08,20,07,39,12.50
2007,08,20,07,40,12.60
2007,08,20,07,41,12.60
2007,08,20,07,42,12.60
2007,08,20,07,43,12.60
2007,08,20,07,44,12.60
2007,08,20,07,45,12.60
2007,08,20,07,46,12.60
2007,08,20,07,47,12.60
2007,08,20,07,48,12.70
2007,08,20,07,49,12.70
2007,08,20,07,50,12.70
2007,08,20,07,51,12.70
2007,08,20,07,52,12.70
2007,08,20,07,53,12.70
2007,08,20,07,54,12.70
2007,08,20,07,55,12.70
2007,08,20,07,56,12.70
2007,08,20,07,57,12.70
2007,08,20,07,58,12.80
2007,08,20,07,59,12.80
2007,08,20,08,00,12.80
2007,08,20,08,01,12.80
2007,08,20,08,02,12.80
2007,08,20,08,03,12.80
2007,08,20,08,04,12.80
2007,08,20,08,05,12.90
2007,08,20,08,06,12.90
2007,08,20,08,07,12.90
2007,08,20,08,08,12.90
2007,08,20,08,09,12.90
2007,08,20,08,10,12.90
2007,08,20,08,11,12.90
2007,08,20,08,12,12.90
2007,08,20,08,13,12.90
2007,08,20,08,14,13.00
2007,08,20,08,15,13.00
2007,08,20,08,16,13.00
2007,08,20,08,17,13.00
2007,08,20,08,18,13.10
2007,08,20,08,19,13.10
2007,08,20,08,20,13.10
2007,08,20,08,21,13.10
2007,08,20,08,22,13.10
2007,08,20,08,23,13.10
2007,08,20,08,24,13.10
2007,08,20,08,25,13.10
2007,08,20,08,26,13.20
2007,08,20,08,27,13.20
2007,08,20,08,28,13.20
2007,08,20,08,29,13.20
2007,08,20,08,30,13.20
2007,08,20,08,31,13.20
2007,08,20,08,32,13.30
2007,08,20,08,33,13.30
2007,08,20,08,34,13.30
2007,08,20,08,35,13.30
2007,08,20,08,36,13.30
2007,08,20,08,37,13.40
2007,08,20,08,38,13.40
2007,08,20,08,39,13.40
2007,08,20,08,40,13.40
2007,08,20,08,41,13.40
2007,08,20,08,42,13.40
2007,08,20,08,43,13.50
2007,08,20,08,44,13.50
2007,08,20,08,45,13.60
2007,08,20,08,46,13.60
2007,08,20,08,47,13.60
2007,08,20,08,48,13.60
2007,08,20,08,49,13.60
2007,08,20,08,50,13.60
2007,08,20,08,51,13.70
2007,08,20,08,52,13.70
2007,08,20,08,53,13.70
2007,08,20,08,54,13.70
2007,08,20,08,55,13.80
2007,08,20,08,56,13.80
2007,08,20,08,57,13.80
2007,08,20,08,58,13.80
2007,08,20,08,59,13.80
2007,08,20,09,00,13.80
2007,08,20,09,01,13.90
2007,08,20,09,02,13.90
2007,08,20,09,03,13.90
2007,08,20,09,04,13.90
2007,08,20,09,05,13.90
2007,08,20,09,06,13.90
2007,08,20,09,07,14.00
2007,08,20,09,08,14.00
2007,08,20,09,09,14.00
2007,08,20,09,10,14.10
2007,08,20,09,11,14.10
2007,08,20,09,12,14.10
2007,08,20,09,13,14.10
2007,08,20,09,14,14.10
2007,08,20,09,15,14.10
2007,08,20,09,16,14.20
2007,08,20,09,17,14.20
2007,08,20,09,18,14.20
2007,08,20,09,19,14.20
2007,08,20,09,20,14.20
2007,08,20,09,21,14.20
2007,08,20,09,22,14.20
2007,08,20,09,23,14.30
2007,08,20,09,24,14.30
2007,08,20,09,25,14.30
2007,08,20,09,26,14.30
2007,08,20,09,27,14.40
2007,08,20,09,28,14.40
2007,08,20,09,29,14.40
2007,08,20,09,30,14.50
2007,08,20,09,31,14.50
2007,08,20,09,32,14.60
2007,08,20,09,33,14.60
2007,08,20,09,34,14.70
2007,08,20,09,35,14.70
2007,08,20,09,36,14.80
2007,08,20,09,37,14.80
2007,08,20,09,38,14.80
2007,08,20,09,39,14.70
2007,08,20,09,40,14.80
2007,08,20,09,41,14.80
2007,08,20,09,42,14.80
2007,08,20,09,43,14.80
2007,08,20,09,44,14.80
2007,08,20,09,45,14.80
2007,08,20,09,46,14.80
2007,08,20,09,47,14.80
2007,08,20,09,48,14.90
2007,08,20,09,49,14.90
2007,08,20,09,50,14.90
2007,08,20,09,51,14.90
2007,08,20,09,52,15.00
2007,08,20,09,53,15.00
2007,08,20,09,54,15.00
2007,08,20,09,55,15.00
2007,08,20,09,56,15.00
2007,08,20,09,57,15.00
2007,08,20,09,58,15.00
2007,08,20,09,59,15.00
2007,08,20,10,00,15.00
2007,08,20,10,01,15.00
2007,08,20,10,02,15.00
2007,08,20,10,03,15.00
2007,08,20,10,04,15.00
2007,08,20,10,05,15.10
2007,08,20,10,06,15.10
2007,08,20,10,07,15.10
2007,08,20,10,08,15.10
2007,08,20,10,09,15.10
2007,08,20,10,10,15.20
2007,08,20,10,11,15.20
2007,08,20,10,12,15.20
2007,08,20,10,13,15.20
2007,08,20,10,14,15.20
2007,08,20,10,15,15.20
2007,08,20,10,16,15.20
2007,08,20,10,17,15.20
2007,08,20,10,18,15.20
2007,08,20,10,19,15.20
2007,08,20,10,20,15.30
2007,08,20,10,21,15.30
2007,08,20,10,22,15.30
2007,08,20,10,23,15.30
2007,08,20,10,24,15.40
2007,08,20,10,25,15.40
2007,08,20,10,26,15.40
2007,08,20,10,27,15.40
2007,08,20,10,28,15.40
2007,08,20,10,29,15.40
2007,08,20,10,30,15.40
2007,08,20,10,31,15.40
2007,08,20,10,32,15.40
2007,08,20,10,33,15.40
2007,08,20,10,34,15.40
2007,08,20,10,35,15.40
2007,08,20,10,36,15.40
2007,08,20,10,37,15.40
2007,08,20,10,38,15.50
2007,08,20,10,39,15.50
2007,08,20,10,40,15.50
2007,08,20,10,41,15.60
2007,08,20,10,42,15.60
2007,08,20,10,43,15.60
2007,08,20,10,44,15.70
2007,08,20,10,45,15.60
2007,08,20,10,46,15.60
2007,08,20,10,47,15.60
2007,08,20,10,48,15.60
2007,08,20,10,49,15.60
2007,08,20,10,50,15.70
2007,08,20,10,51,15.70
2007,08,20,10,52,15.70
2007,08,20,10,53,15.70
2007,08,20,10,54,15.80
2007,08,20,10,55,15.80
2007,08,20,10,56,15.80
2007,08,20,10,57,15.90
2007,08,20,10,58,15.90
2007,08,20,10,59,15.90
2007,08,20,11,00,15.90
2007,08,20,11,01,15.90
2007,08,20,11,02,15.90
2007,08,20,11,03,15.80
2007,08,20,11,04,15.80
2007,08,20,11,05,15.80
2007,08,20,11,06,15.80
2007,08,20,11,07,15.70
2007,08,20,11,08,15.70
2007,08,20,11,09,15.70
2007,08,20,11,10,15.70
2007,08,20,11,11,15.70
2007,08,20,11,12,15.70
2007,08,20,11,13,15.80
2007,08,20,11,14,15.80
2007,08,20,11,15,15.80
2007,08,20,11,16,15.80
2007,08,20,11,17,15.90
2007,08,20,11,18,15.80
2007,08,20,11,19,15.80
2007,08,20,11,20,15.80
2007,08,20,11,21,15.70
2007,08,20,11,22,15.70
2007,08,20,11,23,15.70
2007,08,20,11,24,15.70
2007,08,20,11,25,15.60
2007,08,20,11,26,15.60
2007,08,20,11,27,15.60
2007,08,20,11,28,15.60
2007,08,20,11,29,15.60
2007,08,20,11,30,15.60
2007,08,20,11,31,15.60
2007,08,20,11,32,15.60
2007,08,20,11,33,15.60
2007,08,20,11,34,15.50
2007,08,20,11,35,15.50
2007,08,20,11,36,15.60
2007,08,20,11,37,15.60
2007,08,20,11,38,15.60
2007,08,20,11,39,15.70
2007,08,20,11,40,15.70
2007,08,20,11,41,15.70
2007,08,20,11,42,15.70
2007,08,20,11,43,15.70
2007,08,20,11,44,15.70
2007,08,20,11,45,15.70
2007,08,20,11,46,15.70
2007,08,20,11,47,15.70
2007,08,20,11,48,15.70
2007,08,20,11,49,15.70
2007,08,20,11,50,15.70
2007,08,20,11,51,15.70
2007,08,20,11,52,15.80
2007,08,20,11,53,15.80
2007,08,20,11,54,15.80
2007,08,20,11,55,15.90
2007,08,20,11,56,15.80
2007,08,20,11,57,15.80
2007,08,20,11,58,15.80
2007,08,20,11,59,15.80
2007,08,20,12,00,15.90
2007,08,20,12,01,15.90
2007,08,20,12,02,16.00
2007,08,20,12,03,16.10
2007,08,20,12,04,16.10
2007,08,20,12,05,16.10
2007,08,20,12,06,16.10
2007,08,20,12,07,16.10
2007,08,20,12,08,16.10
2007,08,20,12,09,16.20
2007,08,20,12,10,16.20
2007,08,20,12,11,16.20
2007,08,20,12,12,16.20
2007,08,20,12,13,16.20
2007,08,20,12,14,16.20
2007,08,20,12,15,16.10
2007,08,20,12,16,16.20
2007,08,20,12,17,16.20
2007,08,20,12,18,16.20
2007,08,20,12,19,16.20
2007,08,20,12,20,16.20
2007,08,20,12,21,16.20
2007,08,20,12,22,16.20
2007,08,20,12,23,16.20
2007,08,20,12,24,16.20
2007,08,20,12,25,16.10
2007,08,20,12,26,16.10
2007,08,20,12,27,16.10
2007,08,20,12,28,16.10
2007,08,20,12,29,16.10
2007,08,20,12,30,16.10
2007,08,20,12,31,16.10
2007,08,20,12,32,16.10
2007,08,20,12,33,16.10
2007,08,20,12,34,16.20
2007,08,20,12,35,16.30
2007,08,20,12,36,16.40
2007,08,20,12,37,16.50
2007,08,20,12,38,16.60
2007,08,20,12,39,16.80
2007,08,20,12,40,16.80
2007,08,20,12,41,16.90
2007,08,20,12,42,17.00
2007,08,20,12,43,17.00
2007,08,20,12,44,17.10
2007,08,20,12,45,17.10
2007,08,20,12,46,17.10
2007,08,20,12,47,17.10
2007,08,20,12,48,17.10
2007,08,20,12,49,17.10
2007,08,20,12,50,17.20
2007,08,20,12,51,17.20
2007,08,20,12,52,17.20
2007,08,20,12,53,17.20
2007,08,20,12,54,17.10
2007,08,20,12,55,17.10
2007,08,20,12,56,16.90
2007,08,20,12,57,16.90
2007,08,20,12,58,16.80
2007,08,20,12,59,16.80
2007,08,20,13,00,16.80
2007,08,20,13,01,16.90
2007,08,20,13,02,16.90
2007,08,20,13,03,17.00
2007,08,20,13,04,16.90
2007,08,20,13,05,17.00
2007,08,20,13,06,17.00
2007,08,20,13,07,17.00
2007,08,20,13,08,17.10
2007,08,20,13,09,17.10
2007,08,20,13,10,17.10
2007,08,20,13,11,17.10
2007,08,20,13,12,17.10
2007,08,20,13,13,17.10
2007,08,20,13,14,17.10
2007,08,20,13,15,17.10
2007,08,20,13,16,17.10
2007,08,20,13,17,17.10
2007,08,20,13,18,17.00
2007,08,20,13,19,17.00
2007,08,20,13,20,16.90
2007,08,20,13,21,16.80
2007,08,20,13,22,16.80
2007,08,20,13,23,16.80
2007,08,20,13,24,16.80
2007,08,20,13,25,16.80
2007,08,20,13,26,16.80
2007,08,20,13,27,16.90
2007,08,20,13,28,16.90
2007,08,20,13,29,16.90
2007,08,20,13,30,16.90
2007,08,20,13,31,16.90
2007,08,20,13,32,17.00
2007,08,20,13,33,17.00
2007,08,20,13,34,17.10
2007,08,20,13,35,17.20
2007,08,20,13,36,17.30
2007,08,20,13,37,17.40
2007,08,20,13,38,17.40
2007,08,20,13,39,17.30
2007,08,20,13,40,17.30
2007,08,20,13,41,17.20
2007,08,20,13,42,17.20
2007,08,20,13,43,17.30
2007,08,20,13,44,17.30
2007,08,20,13,45,17.40
2007,08,20,13,46,17.40
2007,08,20,13,47,17.30
2007,08,20,13,48,17.40
2007,08,20,13,49,17.40
2007,08,20,13,50,17.50
2007,08,20,13,51,17.60
2007,08,20,13,52,17.70
2007,08,20,13,53,17.70
2007,08,20,13,54,17.70
2007,08,20,13,55,17.60
2007,08,20,13,56,17.60
2007,08,20,13,57,17.50
2007,08,20,13,58,17.50
2007,08,20,13,59,17.40
2007,08,20,14,00,17.40
2007,08,20,14,01,17.50
2007,08,20,14,02,17.60
2007,08,20,14,03,17.70
2007,08,20,14,04,17.70
2007,08,20,14,05,17.80
2007,08,20,14,06,17.70
2007,08,20,14,07,17.70
2007,08,20,14,08,17.70
2007,08,20,14,09,17.70
2007,08,20,14,10,17.70
2007,08,20,14,11,17.70
2007,08,20,14,12,17.60
2007,08,20,14,13,17.50
2007,08,20,14,14,17.40
2007,08,20,14,15,17.30
2007,08,20,14,16,17.30
2007,08,20,14,17,17.20
2007,08,20,14,18,17.20
2007,08,20,14,19,17.20
2007,08,20,14,20,17.30
2007,08,20,14,21,17.30
2007,08,20,14,22,17.30
2007,08,20,14,23,17.30
2007,08,20,14,24,17.30
2007,08,20,14,25,17.20
2007,08,20,14,26,17.20
2007,08,20,14,27,17.10
2007,08,20,14,28,17.10
2007,08,20,14,29,17.20
2007,08,20,14,30,17.20
2007,08,20,14,31,17.10
2007,08,20,14,32,16.90
2007,08,20,14,33,17.00
2007,08,20,14,34,17.10
2007,08,20,14,35,17.20
2007,08,20,14,36,17.30
2007,08,20,14,37,17.30
2007,08,20,14,38,17.20
2007,08,20,14,39,17.10
2007,08,20,14,40,17.00
2007,08,20,14,41,16.90
2007,08,20,14,42,16.80
2007,08,20,14,43,16.80
2007,08,20,14,44,16.80
2007,08,20,14,45,16.90
2007,08,20,14,46,16.90
2007,08,20,14,47,16.80
2007,08,20,14,48,16.80
2007,08,20,14,49,16.70
2007,08,20,14,50,16.60
2007,08,20,14,51,16.40
2007,08,20,14,52,16.30
2007,08,20,14,53,16.20
2007,08,20,14,54,16.20
2007,08,20,14,55,16.20
2007,08,20,14,56,16.20
2007,08,20,14,57,16.20
2007,08,20,14,58,16.20
2007,08,20,14,59,16.30
2007,08,20,15,00,16.30
2007,08,20,15,01,16.30
2007,08,20,15,02,16.20
2007,08,20,15,03,16.20
2007,08,20,15,04,16.10
2007,08,20,15,05,16.10
2007,08,20,15,06,16.10
2007,08,20,15,07,16.20
2007,08,20,15,08,16.20
2007,08,20,15,09,16.20
2007,08,20,15,10,16.20
2007,08,20,15,11,16.20
2007,08,20,15,12,16.20
2007,08,20,15,13,16.10
2007,08,20,15,14,16.10
2007,08,20,15,15,16.10
2007,08,20,15,16,16.10
2007,08,20,15,17,16.10
2007,08,20,15,18,16.10
2007,08,20,15,19,16.10
2007,08,20,15,20,16.20
2007,08,20,15,21,16.20
2007,08,20,15,22,16.30
2007,08,20,15,23,16.30
2007,08,20,15,24,16.30
2007,08,20,15,25,16.20
2007,08,20,15,26,16.20
2007,08,20,15,27,16.20
2007,08,20,15,28,16.20
2007,08,20,15,29,16.20
2007,08,20,15,30,16.20
2007,08,20,15,31,16.30
2007,08,20,15,32,16.20
2007,08,20,15,33,16.20
2007,08,20,15,34,16.10
2007,08,20,15,35,16.00
2007,08,20,15,36,16.00
2007,08,20,15,37,15.90
2007,08,20,15,38,15.90
2007,08,20,15,39,15.90
2007,08,20,15,40,15.90
2007,08,20,15,41,15.90
2007,08,20,15,42,16.00
2007,08,20,15,43,16.00
2007,08,20,15,44,16.10
2007,08,20,15,45,16.10
2007,08,20,15,46,16.10
2007,08,20,15,47,16.10
2007,08,20,15,48,16.10
2007,08,20,15,49,16.10
2007,08,20,15,50,16.10
2007,08,20,15,51,16.00
2007,08,20,15,52,16.00
2007,08,20,15,53,16.00
2007,08,20,15,54,16.00
2007,08,20,15,55,16.00
2007,08,20,15,56,16.10
2007,08,20,15,57,16.10
2007,08,20,15,58,16.00
2007,08,20,15,59,16.00
2007,08,20,16,00,16.00
2007,08,20,16,01,15.90
2007,08,20,16,02,15.90
2007,08,20,16,03,16.00
2007,08,20,16,04,16.00
2007,08,20,16,05,16.10
2007,08,20,16,06,16.10
2007,08,20,16,07,16.20
2007,08,20,16,08,16.30
2007,08,20,16,09,16.40
2007,08,20,16,10,16.50
2007,08,20,16,11,16.60
2007,08,20,16,12,16.60
2007,08,20,16,13,16.60
2007,08,20,16,14,16.50
2007,08,20,16,15,16.50
2007,08,20,16,16,16.50
2007,08,20,16,17,16.50
2007,08,20,16,18,16.50
2007,08,20,16,19,16.60
2007,08,20,16,20,16.60
2007,08,20,16,21,16.60
2007,08,20,16,22,16.60
2007,08,20,16,23,16.60
2007,08,20,16,24,16.60
2007,08,20,16,25,16.60
2007,08,20,16,26,16.60
2007,08,20,16,27,16.50
2007,08,20,16,28,16.40
2007,08,20,16,29,16.30
2007,08,20,16,30,16.20
2007,08,20,16,31,16.20
2007,08,20,16,32,16.20
2007,08,20,16,33,16.20
2007,08,20,16,34,16.20
2007,08,20,16,35,16.10
2007,08,20,16,36,16.10
2007,08,20,16,37,16.10
2007,08,20,16,38,16.10
2007,08,20,16,39,16.10
2007,08,20,16,40,16.10
2007,08,20,16,41,16.00
2007,08,20,16,42,16.00
2007,08,20,16,43,15.90
2007,08,20,16,44,15.80
2007,08,20,16,45,15.80
2007,08,20,16,46,15.80
2007,08,20,16,47,15.80
2007,08,20,16,48,15.80
2007,08,20,16,49,15.80
2007,08,20,16,50,15.70
2007,08,20,16,51,15.80
2007,08,20,16,52,15.80
2007,08,20,16,53,15.80
2007,08,20,16,54,15.80
2007,08,20,16,55,15.80
2007,08,20,16,56,15.80
2007,08,20,16,57,15.80
2007,08,20,16,58,15.80
2007,08,20,16,59,15.80
2007,08,20,17,00,15.80
2007,08,20,17,01,15.80
2007,08,20,17,02,15.80
2007,08,20,17,03,15.80
2007,08,20,17,04,15.80
2007,08,20,17,05,15.80
2007,08,20,17,06,15.80
2007,08,20,17,07,15.80
2007,08,20,17,08,15.80
2007,08,20,17,09,15.80
2007,08,20,17,10,15.80
2007,08,20,17,11,15.80
2007,08,20,17,12,15.80
2007,08,20,17,13,15.90
2007,08,20,17,14,15.90
2007,08,20,17,15,15.80
2007,08,20,17,16,15.80
2007,08,20,17,17,15.80
2007,08,20,17,18,15.80
2007,08,20,17,19,15.70
2007,08,20,17,20,15.70
2007,08,20,17,21,15.70
2007,08,20,17,22,15.70
2007,08,20,17,23,15.80
2007,08,20,17,24,15.80
2007,08,20,17,25,15.80
2007,08,20,17,26,15.80
2007,08,20,17,27,15.80
2007,08,20,17,28,15.80
2007,08,20,17,29,15.80
2007,08,20,17,30,15.80
2007,08,20,17,31,15.70
2007,08,20,17,32,15.70
2007,08,20,17,33,15.70
2007,08,20,17,34,15.60
2007,08,20,17,35,15.60
2007,08,20,17,36,15.60
2007,08,20,17,37,15.60
2007,08,20,17,38,15.60
2007,08,20,17,39,15.50
2007,08,20,17,40,15.50
2007,08,20,17,41,15.50
2007,08,20,17,42,15.60
2007,08,20,17,43,15.60
2007,08,20,17,44,15.60
2007,08,20,17,45,15.50
2007,08,20,17,46,15.50
2007,08,20,17,47,15.50
2007,08,20,17,48,15.50
2007,08,20,17,49,15.50
2007,08,20,17,50,15.50
2007,08,20,17,51,15.40
2007,08,20,17,52,15.40
2007,08,20,17,53,15.40
2007,08,20,17,54,15.50
2007,08,20,17,55,15.50
2007,08,20,17,56,15.50
2007,08,20,17,57,15.60
2007,08,20,17,58,15.60
2007,08,20,17,59,15.60
2007,08,20,18,00,15.60
2007,08,20,18,01,15.60
2007,08,20,18,02,15.60
2007,08,20,18,03,15.70
2007,08,20,18,04,15.70
2007,08,20,18,05,15.70
2007,08,20,18,06,15.60
2007,08,20,18,07,15.60
2007,08,20,18,08,15.60
2007,08,20,18,09,15.50
2007,08,20,18,10,15.50
2007,08,20,18,11,15.40
2007,08,20,18,12,15.40
2007,08,20,18,13,15.40
2007,08,20,18,14,15.30
2007,08,20,18,15,15.30
2007,08,20,18,16,15.30
2007,08,20,18,17,15.20
2007,08,20,18,18,15.20
2007,08,20,18,19,15.20
2007,08,20,18,20,15.10
2007,08,20,18,21,15.10
2007,08,20,18,22,15.10
2007,08,20,18,23,15.10
2007,08,20,18,24,15.10
2007,08,20,18,25,15.10
2007,08,20,18,26,15.10
2007,08,20,18,27,15.10
2007,08,20,18,28,15.10
2007,08,20,18,29,15.10
2007,08,20,18,30,15.20
2007,08,20,18,31,15.20
2007,08,20,18,32,15.30
2007,08,20,18,33,15.30
2007,08,20,18,34,15.30
2007,08,20,18,35,15.30
2007,08,20,18,36,15.30
2007,08,20,18,37,15.30
2007,08,20,18,38,15.30
2007,08,20,18,39,15.30
2007,08,20,18,40,15.30
2007,08,20,18,41,15.30
2007,08,20,18,42,15.30
2007,08,20,18,43,15.20
2007,08,20,18,44,15.20
2007,08,20,18,45,15.20
2007,08,20,18,46,15.20
2007,08,20,18,47,15.20
2007,08,20,18,48,15.20
2007,08,20,18,49,15.20
2007,08,20,18,50,15.20
2007,08,20,18,51,15.20
2007,08,20,18,52,15.20
2007,08,20,18,53,15.30
2007,08,20,18,54,15.30
2007,08,20,18,55,15.30
2007,08,20,18,56,15.30
2007,08,20,18,57,15.30
2007,08,20,18,58,15.30
2007,08,20,18,59,15.30
2007,08,20,19,00,15.30